PROFILE

 METAR AND TAF INFORMATION
ADDS - METARS form results

(0355 UTC 25 April 2019)
http://aviationweather.gov/metar/data/
 
TAF FNMO 242300Z 2500/2512 17005KT CAVOK BECMG 2509/2511 23010KT 

 AIRPORT MAP

 RUNWAY INFORMATION
Runway 08 Runway length 8202 ft Runway width 148 ft
Runway elevation 210 ft Runway displaced threshold 0 ft Runway heading 66
Runway 26 Runway length 8202 ft Runway width 148 ft
Runway elevation 210 ft Runway displaced threshold 0 ft Runway heading 246

 AIRPORT FREQUENCIES
Type AFIS Name AFIS Frequency 118.1 MHZ

 AIRPORT NEAR NAVIGATION AIDS
Type NDB Name Namibe Frequency 358 KHZ
Type VOR-DME Name Namibe Frequency 114100 KHZ